Leominster, MA

3:17 AM EDT on July 26, 2016 (GMT -0400)
Fitchburg Municipal

Weather History for KFIT - May, 2014

Change the Weather History Date:

Thursday, May 1, 2014

  Actual Average (KORH) Record (KORH)
Temperature  
Mean Temperature 55 °F 52 °F  
Max Temperature 69 °F 61 °F 90 °F (1899)
Min Temperature 42 °F 42 °F 29 °F (1978)
Degree Days  
Heating Degree Days 10 13  
Month to date heating degree days 13  
Since 1 July heating degree days 6360  
Cooling Degree Days 0 0  
Month to date cooling degree days 0  
Year to date cooling degree days 3  
Growing Degree Days 5 (Base 50)    
Moisture  
Dew Point 47 °F    
Average Humidity 88    
Maximum Humidity 94    
Minimum Humidity 65    
Precipitation  
Precipitation 0.71 in 0.12 in 1.39 in (1953)
Month to date precipitation 0.12  
Year to date precipitation 15.16  
Snow  
Snow 0.00 in 0.00 in T in (1981)
Month to date snowfall 0.0  
Since 1 July snowfall 64.1  
Snow Depth -    
Sea Level Pressure  
Sea Level Pressure 29.83 in    
Wind  
Wind Speed 3 mph (NNW)    
Max Wind Speed 10 mph    
Max Gust Speed -    
Visibility 5 miles    
Events Rain , Thunderstorm    
T = Trace of Precipitation, MM = Missing Value Source: NWS Daily Summary

Daily Weather History Graph

Daily Weather History Graph

Search for Another Location

Airport or City:

Trip Planner

Search our weather history database for the weather conditions in past years. The results will help you decide how hot, cold, wet, or windy it might be!

Date:

Astronomy

May. 01, 2014 Rise Set
Actual Time 5:41 AM EDT 7:47 PM EDT
Civil Twilight 5:11 AM EDT 8:17 PM EDT
Nautical Twilight 4:33 AM EDT 8:55 PM EDT
Astronomical Twilight 3:52 AM EDT 9:37 PM EDT
Moon 7:25 AM EDT (5/1) 10:18 PM EDT (5/1)
Length of Visible Light 15h 06m
Length of Day
14h 05m
Waxing Crescent, 6% of the Moon is Illuminated
May 1
Waxing Crescent
May 6
First Quarter
May 14
Full
May 21
Last Quarter
May 28
New

Hourly Weather History & Observations

Time (EDT) Temp. Windchill Dew Point Humidity Pressure Visibility Wind Dir Wind Speed Gust Speed Precip Events Conditions
12:52 AM 42.1 °F 38.4 °F 39.0 °F 89% 30.16 in 8.0 mi NNE 5.8 mph - 0.03 in Rain Light Rain
1:52 AM 42.1 °F - 39.9 °F 92% 30.12 in 5.0 mi Calm Calm - 0.03 in Rain Rain
2:52 AM 42.1 °F 40.2 °F 39.9 °F 92% 30.06 in 3.0 mi Variable 3.5 mph - 0.11 in Rain Rain
2:59 AM 42.1 °F - 39.9 °F 92% 30.05 in 3.0 mi Calm Calm - 0.02 in Rain Rain
3:31 AM 42.1 °F 38.4 °F 39.9 °F 92% 30.02 in 5.0 mi North 5.8 mph - 0.08 in Rain Rain
3:52 AM 42.1 °F 39.2 °F 39.9 °F 92% 30.01 in 4.0 mi North 4.6 mph - 0.11 in Rain Rain
4:37 AM 42.1 °F 39.2 °F 39.9 °F 92% 29.99 in 2.5 mi North 4.6 mph - 0.09 in Rain Rain
4:52 AM 42.1 °F 39.2 °F 39.9 °F 92% 29.99 in 3.0 mi NNW 4.6 mph - 0.11 in Rain Light Rain
5:52 AM 43.0 °F 41.3 °F 39.9 °F 89% 29.95 in 3.0 mi NNW 3.5 mph - 0.05 in Rain Light Rain
6:17 AM 43.0 °F 40.3 °F 39.9 °F 89% 29.93 in 3.0 mi Variable 4.6 mph - 0.05 in Rain Heavy Rain
6:33 AM 43.0 °F 39.5 °F 39.9 °F 89% 29.92 in 1.8 mi NNW 5.8 mph - 0.08 in Rain Rain
6:40 AM 43.0 °F - 41.0 °F 93% 29.92 in 2.0 mi Calm Calm - 0.08 in Rain Light Rain
6:52 AM 43.0 °F - 41.0 °F 93% 29.92 in 2.5 mi Calm Calm - 0.10 in Rain Light Rain
7:02 AM 43.0 °F - 41.0 °F 93% 29.91 in 3.0 mi Calm Calm - 0.00 in Rain Light Rain
7:32 AM 43.0 °F 41.3 °F 41.0 °F 93% 29.89 in 2.5 mi WNW 3.5 mph - 0.01 in Rain Light Rain
7:42 AM 43.0 °F 39.5 °F 41.0 °F 93% 29.89 in 4.0 mi WNW 5.8 mph - 0.01 in Rain Light Rain
7:52 AM 44.1 °F 41.5 °F 41.0 °F 89% 29.90 in 4.0 mi NW 4.6 mph - 0.01 in Rain Light Rain
8:19 AM 44.1 °F 41.5 °F 42.1 °F 93% 29.87 in 2.0 mi NW 4.6 mph - 0.00 in Rain Light Rain
8:52 AM 45.0 °F 43.5 °F 42.1 °F 90% 29.87 in 2.0 mi North 3.5 mph - 0.01 in   Overcast
9:04 AM 45.0 °F 43.5 °F 43.0 °F 93% 29.86 in 2.0 mi NNW 3.5 mph - N/A   Overcast
9:11 AM 45.0 °F 43.5 °F 43.0 °F 93% 29.85 in 1.8 mi North 3.5 mph - N/A   Overcast
9:20 AM 46.0 °F 43.9 °F 43.0 °F 89% 29.85 in 2.0 mi NNW 4.6 mph - N/A   Overcast
9:31 AM 45.0 °F 42.6 °F 43.0 °F 93% 29.84 in 1.8 mi NNW 4.6 mph - 0.01 in Rain Light Rain
9:42 AM 45.0 °F 42.6 °F 43.0 °F 93% 29.84 in 2.5 mi NNW 4.6 mph - 0.03 in Rain Rain
9:49 AM 46.4 °F - 44.6 °F 93% 29.84 in 4.0 mi Calm Calm - 0.04 in Rain Light Rain
9:52 AM 46.0 °F 44.8 °F 44.1 °F 93% 29.85 in 5.0 mi NNW 3.5 mph - 0.04 in Rain Light Rain
10:00 AM 46.0 °F 44.8 °F 44.1 °F 93% 29.83 in 9.0 mi Variable 3.5 mph - 0.00 in   Overcast
10:15 AM 46.9 °F - 44.1 °F 90% 29.83 in 10.0 mi North 3.5 mph - 0.00 in   Overcast
10:41 AM 48.0 °F - 45.0 °F 89% 29.81 in 2.0 mi Calm Calm - 0.00 in Rain Light Rain
10:52 AM 48.0 °F - 45.0 °F 89% 29.81 in 2.0 mi Calm Calm - 0.00 in   Overcast
11:00 AM 48.0 °F - 45.0 °F 89% 29.81 in 1.8 mi North 3.5 mph - N/A   Overcast
11:09 AM 48.0 °F - 45.0 °F 89% 29.81 in 3.0 mi Calm Calm - N/A   Overcast
11:38 AM 48.9 °F - 46.0 °F 90% 29.79 in 2.5 mi Calm Calm - N/A   Overcast
11:52 AM 50.0 °F - 46.9 °F 89% 29.80 in 4.0 mi Calm Calm - N/A   Overcast
12:52 PM 52.0 °F - 48.0 °F 86% 29.80 in 10.0 mi Calm Calm - N/A   Overcast
12:59 PM 52.0 °F - 48.0 °F 86% 29.78 in 9.0 mi Calm Calm - N/A   Overcast
2:10 PM 57.9 °F - 52.0 °F 81% 29.75 in 10.0 mi Calm Calm - N/A   Overcast
2:32 PM 61.0 °F - 53.1 °F 75% 29.74 in 10.0 mi SE 4.6 mph - N/A   Partly Cloudy
2:52 PM 61.0 °F - 53.1 °F 75% 29.73 in 10.0 mi SSE 6.9 mph - N/A   Scattered Clouds
3:52 PM 64.0 °F - 55.0 °F 73% 29.71 in 10.0 mi SE 5.8 mph - N/A   Scattered Clouds
4:52 PM 66.9 °F - 55.9 °F 68% 29.70 in 10.0 mi SSE 10.4 mph - N/A   Scattered Clouds
5:52 PM 68.0 °F - 55.9 °F 65% 29.68 in 10.0 mi SSE 9.2 mph - N/A   Clear
6:52 PM 66.9 °F - 55.0 °F 66% 29.66 in 10.0 mi SSE 6.9 mph - N/A   Clear
7:52 PM 64.0 °F - 55.0 °F 73% 29.66 in 10.0 mi Calm Calm - N/A   Clear
8:52 PM 59.0 °F - 55.0 °F 87% 29.67 in 10.0 mi NNW 3.5 mph - N/A   Partly Cloudy
9:18 PM 59.0 °F - 55.9 °F 90% 29.69 in 2.0 mi Calm Calm - 0.08 in Rain , Thunderstorm Heavy Rain
9:25 PM 59.0 °F - 57.0 °F 93% 29.68 in 1.8 mi North 6.9 mph - 0.11 in Rain , Thunderstorm Heavy Rain
9:28 PM 59.0 °F - 57.0 °F 93% 29.68 in 3.0 mi NNW 6.9 mph - 0.11 in Rain , Thunderstorm Light Rain
9:52 PM 59.0 °F - 57.0 °F 93% 29.70 in 10.0 mi Calm Calm - 0.11 in Thunderstorm Overcast
10:07 PM 59.0 °F - 57.0 °F 93% 29.68 in 9.0 mi NNE 3.5 mph - N/A   Overcast
10:52 PM 57.9 °F - 55.9 °F 93% 29.70 in 9.0 mi Calm Calm - N/A   Partly Cloudy
11:47 PM 55.4 °F - 53.6 °F 94% 29.69 in 2.5 mi Calm Calm - N/A   Clear
11:52 PM 55.0 °F - 53.1 °F 93% 29.70 in 5.0 mi Calm Calm - N/A   Clear